This is the latest recevied weather packets stored in our database for station/object KG7FOQ-13. If no packets are shown the sender has not sent any weather packets the latest 10 day(s).
| Time | Temp. | Humidity | Pressure | Rain* | Wind** | Luminosity | Snow |
|---|---|---|---|---|---|---|---|
| 1778081141 | 8.89° C | 49% | 1020.3 hPa | 0 mm | - | - | - |
| 1778080840 | 8.33° C | 51% | 1020.3 hPa | 0 mm | - | - | - |
| 1778080239 | 8.33° C | 50% | 1020.2 hPa | 0 mm | - | - | - |
| 1778079938 | 8.33° C | 49% | 1020.2 hPa | 0 mm | - | - | - |
| 1778079638 | 8.33° C | 50% | 1020.2 hPa | 0 mm | - | - | - |
| 1778079337 | 7.78° C | 52% | 1020.3 hPa | 0 mm | - | - | - |
| 1778079037 | 7.78° C | 50% | 1020.2 hPa | 0 mm | - | - | - |
| 1778078736 | 7.22° C | 51% | 1020.2 hPa | 0 mm | - | - | - |
| 1778078434 | 7.22° C | 49% | 1020.2 hPa | 0 mm | - | - | - |
| 1778078133 | 7.22° C | 48% | 1020.1 hPa | 0 mm | - | - | - |
| 1778077833 | 7.22° C | 49% | 1020.1 hPa | 0 mm | - | - | - |
| 1778077532 | 7.78° C | 49% | 1020 hPa | 0 mm | - | - | - |
| 1778077232 | 7.22° C | 50% | 1020 hPa | 0 mm | - | - | - |
| 1778076931 | 7.78° C | 49% | 1019.9 hPa | 0 mm | - | - | - |
| 1778076631 | 7.22° C | 47% | 1019.9 hPa | 0 mm | - | - | - |
| 1778076330 | 7.22° C | 46% | 1019.7 hPa | 0 mm | - | - | - |
| 1778076030 | 7.22° C | 45% | 1019.7 hPa | 0 mm | - | - | - |
| 1778075729 | 7.22° C | 47% | 1019.7 hPa | 0 mm | - | - | - |
| 1778075429 | 7.22° C | 49% | 1019.6 hPa | 0 mm | - | - | - |
| 1778075128 | 6.67° C | 51% | 1019.5 hPa | 0 mm | - | - | - |
| 1778074828 | 6.67° C | 54% | 1019.5 hPa | 0 mm | - | - | - |
| 1778074527 | 6.11° C | 55% | 1019.4 hPa | 0 mm | - | - | - |
| 1778074226 | 6.11° C | 54% | 1019.2 hPa | 0 mm | - | - | - |
| 1778073926 | 6.11° C | 53% | 1019 hPa | 0 mm | - | - | - |
| 1778073626 | 6.11° C | 50% | 1019 hPa | 0 mm | - | - | - |
* Rain latest hour (hover to see other rain measurements)
** Current wind speed in m/s (hover to see current wind gust speed)